This is the latest recevied weather packets stored in our database for station/object DG1GMY-13. If no packets are shown the sender has not sent any weather packets the latest 10 day(s).
| Time | Temp. | Humidity | Pressure | Rain* | Wind** | Luminosity | Snow |
|---|---|---|---|---|---|---|---|
| 1787843922 | 30.56° C | 44% | 1011.8 hPa | - | - | - | - |
| 1787842116 | 31.67° C | 42% | 1012 hPa | - | - | - | - |
| 1787840310 | 31.11° C | 44% | 1011.9 hPa | - | - | - | - |
| 1787838505 | 31.11° C | 43% | 1011.7 hPa | - | - | - | - |
| 1787836699 | 30° C | 41% | 1011.7 hPa | - | - | - | - |
| 1787834893 | 30° C | 45% | 1012.2 hPa | - | - | - | - |
| 1787833087 | 29.44° C | 48% | 1012.2 hPa | - | - | - | - |
| 1787831280 | 28.33° C | 50% | 1012.5 hPa | - | - | - | - |
| 1787829474 | 28.89° C | 53% | 1012.9 hPa | - | - | - | - |
| 1787827668 | 27.78° C | 61% | 1013.1 hPa | - | - | - | - |
| 1787825862 | 26.11° C | 64% | 1013.2 hPa | - | - | - | - |
| 1787824056 | 25.56° C | 71% | 1013.7 hPa | - | - | - | - |
| 1787822250 | 24.44° C | 73% | 1014 hPa | - | - | - | - |
| 1787820444 | 22.78° C | 80% | 1013.9 hPa | - | - | - | - |
| 1787818639 | 22.22° C | 87% | 1014 hPa | - | - | - | - |
| 1787816832 | 21.11° C | 92% | 1014.2 hPa | - | - | - | - |
| 1787815027 | 20° C | 100% | 1014.3 hPa | - | - | - | - |
| 1787813220 | 19.44° C | 100% | 1013.9 hPa | - | - | - | - |
| 1787811414 | 18.33° C | 100% | 1013.6 hPa | - | - | - | - |
| 1787809608 | 17.78° C | 100% | 1013.5 hPa | - | - | - | - |
| 1787807802 | 16.11° C | 100% | 1013.6 hPa | - | - | - | - |
| 1787805996 | 16.11° C | 100% | 1013.3 hPa | - | - | - | - |
| 1787804191 | 16.67° C | 100% | 1013.2 hPa | - | - | - | - |
| 1787802385 | 17.22° C | 100% | 1013 hPa | - | - | - | - |
| 1787800579 | 17.22° C | 100% | 1013.3 hPa | - | - | - | - |
* Rain since midnight (hover to see other rain measurements)
** Current wind speed in m/s (hover to see current wind gust speed)